Regional Weather Roundup
Issued by NWS Jackson, KY

Home | Current Version | Previous Version | Graphics & Text | Print | Product List | Glossary On
Versions: 1 2 3 4 5 6 7 8 9 10 11 12 13 14 15 16 17 18 19 20 21 22 23 24 25 26 27 28 29 30 31 32 33 34 35 36 37 38 39 40 41 42 43 44 45 46 47 48 49 50
822
ASUS43 KJKL 291210
RWRJKL

EAST KENTUCKY HOURLY WEATHER ROUNDUP
NATIONAL WEATHER SERVICE JACKSON KY
800 AM EDT SUN MAY 29 2016

NOTE: "FAIR" INDICATES FEW OR NO CLOUDS BELOW 12,000 FEET WITH
NO SIGNIFICANT WEATHER AND/OR OBSTRUCTIONS TO VISIBILITY.

* THESE REPORTS ARE NOT UNDER NWS QUALITY CONTROL AND MAY NOT
  REPORT WEATHER SUCH AS PRECIPITATION AND FOG.

KYZ079-080-083-085-087-088-110-112-115-119-120-291300
...EASTERN KENTUCKY...

CITY           SKY/WX    TMP DP  RH WIND       PRES   REMARKS
JACKSON        CLOUDY    68  64  87 CALM      30.15F
6HR MIN TEMP:  67; 6HR MAX TEMP:  70;

LONDON         CLOUDY    66  63  90 CALM      30.16R
6HR MIN TEMP:  65; 6HR MAX TEMP:  69;

SOMERSET*      MOSUNNY   66  64  94 CALM      30.15S
MONTICELLO*    CLOUDY    66  64  93 W9        30.16S
6HR MIN TEMP:  63; 6HR MAX TEMP:  66;

WILLIAMSBURG*  CLOUDY    61  61 100 CALM      30.16S
MIDDLESBORO*   CLOUDY    64  64  97 CALM      30.17S
6HR MIN TEMP:  63; 6HR MAX TEMP:  65;

HARLAN APT*    CLOUDY   N/A N/A N/A CALM      30.18S
HAZARD APT*    MOSUNNY   66  66 100 CALM      30.16S FOG
BLACK MTN*       N/A     63  57  82 N2          N/A
PIKE CO APT*     N/A     67  66  98 SE3       30.16R
BIG SANDY APT* PTSUNNY   67  67  99 CALM      30.15S FOG
6HR MIN TEMP:  65; 6HR MAX TEMP:  69;

MOREHEAD APT*  CLOUDY    68  64  88 CALM      30.16R
ASHLAND*       CLOUDY    66  66 100 CALM      30.10F
$$

KYZ035-036-041-042-044-050-067-078-099-291300
...CENTRAL KENTUCKY...

CITY           SKY/WX    TMP DP  RH WIND       PRES   REMARKS
MT STERLING*   CLOUDY    68  64  88 CALM      30.15S
FLEMING/MASON* MOSUNNY   67  64  91 SE3       30.15R
DANVILLE*      CLOUDY    64  63  94 SW3       30.15R
RICHMOND*      CLOUDY    70  63  78 SE3       30.13S
LEXINGTON      PTSUNNY   70  63  78 S5        30.14R
6HR MIN TEMP:  67; 6HR MAX TEMP:  70;

FRANKFORT      CLOUDY    67  63  87 CALM      30.12R
6HR MIN TEMP:  66; 6HR MAX TEMP:  69;

LOUISVILLE     MOSUNNY   68  64  87 SE6       30.11S
6HR MIN TEMP:  66; 6HR MAX TEMP:  71;

LEBANON*       PTSUNNY   68  63  83 S5        30.14R
GLASGOW*       SUNNY     68  64  85 CALM      30.13S
BOWLING GREEN  SUNNY     68  65  90 CALM      30.13R
6HR MIN TEMP:  62; 6HR MAX TEMP:  69;

$$

KYZ091>093-OHZ055-061-077-WVZ005-015-034-035-042-291300
...SOUTHERN OHIO/WEST VIRGINIA...

CITY           SKY/WX    TMP DP  RH WIND       PRES   REMARKS
COVINGTON      CLOUDY    69  63  81 CALM      30.12R
COLUMBUS       PTSUNNY   70  66  87 CALM      30.11S
DAYTON         PTSUNNY   70  62  76 S7        30.11S
WILMINGTON     CLOUDY    71  64  78 S3        30.12S
HUNTINGTON       N/A     69  67  93 CALM      30.12S FOG
CHARLESTON     CLOUDY    65  62  90 CALM      30.14R
PINEVILLE*     PTSUNNY   63  58  83 MISG      30.24S
BECKLEY        CLOUDY    65  56  72 SE7       30.23R
BLUEFIELD      LGT RAIN  60  57  89 VRB3      30.24S
LOGAN CO APT*    N/A     66  61  82 CALM      30.17R
$$

VAZ002-007-008-TNZ017-027-036-066-071-291300
...SOUTHWEST VIRGINIA/EAST TENNESSEE...

CITY           SKY/WX    TMP DP  RH WIND       PRES   REMARKS
WISE*            N/A     66  54  63 CALM      30.23S
JONESVILLE*      N/A     64  63  94 CALM      30.19S
ABINGDON*      LGT RAIN  65  60  84 CALM      30.20S
BRISTOL        CLOUDY    66  61  84 CALM      30.18R
SEVIERVILLE*   PTSUNNY   66  63  88 CALM      30.15R
KNOXVILLE      CLOUDY    71  62  73 CALM      30.14R
OAK RIDGE      CLOUDY    69  64  84 CALM      30.16R
CROSSVILLE     CLOUDY    65  61  87 CALM      30.19R
NASHVILLE      MOSUNNY   67  64  90 CALM      30.13R
$$

...KEY TO REMARKS...
VSB - VISIBILITY IN MILES
WCI - WIND CHILL INDEX
HX  - HEAT INDEX

$$




USA.gov is the U.S. government's official web portal to all federal, state and local government web resources and services.